Regional Weather Roundup
Issued by NWS Northern Indiana

Home | Current Version | Previous Version | Graphics & Text | Print | Product List | Glossary On
Versions: 1 2 3 4 5 6 7 8 9 10 11 12 13 14 15 16 17 18 19 20 21 22 23 24 25 26 27 28 29 30 31 32 33 34 35 36 37 38 39 40 41 42 43 44 45 46 47 48 49 50
000
ASUS43 KIWX 150710
RWRIWX

KIWX WEATHER ROUNDUP
NATIONAL WEATHER SERVICE NORTHERN INDIANA
300 AM EDT MON SEP 15 2014

NOTE: "FAIR" INDICATES FEW OR NO CLOUDS BELOW 12,000 FEET WITH NO
SIGNIFICANT WEATHER AND/OR OBSTRUCTIONS TO VISIBILITY.

* THESE STATIONS ARE NOT UNDER NWS QUALITY CONTROL. THEY ALSO MAY NOT
  REPORT WEATHER SUCH AS PRECIPITATION OR FOG.

INZ001>027-150800-
NORTHERN INDIANA

CITY           SKY/WX    TMP DP  RH WIND       PRES   REMARKS
GARY*          CLEAR     47  46  96 CALM      30.20S
VALPARAISO     CLEAR     46  44  93 CALM      30.20S
MICHIGAN CITY* CLEAR     45  45 100 CALM      30.20S
LAPORTE*       CLEAR     44  44 100 CALM      30.21S
KNOX*          CLEAR     45  43  93 CALM      30.19F
SOUTH BEND     CLEAR     47  44  90 CALM      30.20S
GOSHEN         CLEAR     46  43  89 CALM      30.20S
MONTICELLO*    PTCLDY    47  47  99 CALM      30.20S
LOGANSPORT*    PTCLDY    45  43  93 CALM      30.21S
ROCHESTER*     CLEAR     46  46 100 CALM      30.21S
WARSAW*        CLEAR     45  45 100 CALM      30.21S
ANGOLA*        CLEAR     45  45 100 CALM      30.21S
FORT WAYNE     PTCLDY    47  45  93 CALM      30.22R
HUNTINGTON*    CLEAR     47  47  99 CALM      30.20S FOG
PERU/GRISSOM   PTCLDY    49  49 100 CALM      30.20S
MARION*        CLEAR     45  44  97 CALM      30.21S

$$
INZ028>050-150800-
CENTRAL INDIANA

CITY           SKY/WX    TMP DP  RH WIND       PRES   REMARKS
LAFAYETTE      PTCLDY    47  46  97 CALM      30.20S
KOKOMO*        PTCLDY    46  43  87 CALM      30.21S
MUNCIE*        CLEAR     46  44  93 NW3       30.21S
INDIANAPOLIS   CLEAR     53  47  79 CALM      30.20R

$$
MIZ043>046-050>051-056>058-064>065-071>073-077>080-150800-
SOUTHWEST LOWER MICHIGAN

CITY           SKY/WX    TMP DP  RH WIND       PRES   REMARKS
BATTLE CREEK   CLEAR     46  42  86 CALM      30.20S
BENTON HARBOR  CLEAR     46  45  96 CALM      30.19S
COLDWATER*     CLEAR     45  44  97 CALM      30.20S
HILLSDALE*     FOG       42  42 100 CALM      30.21R VSB 1
HOLLAND        CLEAR     49  45  86 S3        30.18S
GRAND RAPIDS   CLEAR     49  45  86 S6        30.18S
KALAMAZOO      CLEAR     46  43  89 S3        30.19F
STURGIS*       CLEAR     45  43  93 CALM      30.20S
THREE RIVERS*  FAIR      46  44  95 CALM      30.21S

$$
OHZ001>008-015>018-024>025-150800-
NORTHWEST OHIO

CITY           SKY/WX    TMP DP  RH WIND       PRES   REMARKS
WAUSEON*       FOG       45  45 100 CALM      30.21S VSB 1/4
DEFIANCE       CLEAR     47  44  90 CALM      30.22R
FINDLAY        CLEAR     50  45  83 CALM      30.20F
TOLEDO EXPRESS CLEAR     45  44  97 CALM      30.21S
TOLEDO METCALF CLEAR     50  44  80 CALM      30.22S
LIMA           CLEAR     48  44  86 SE3       30.21S

$$
&&


USA.gov is the U.S. government's official web portal to all federal, state and local government web resources and services.